Tracking 30970 objects as of 3-Jul-2025
HD Live streaming from Space Station
objects crossing your sky now

COSMOS 2041

Track COSMOS 2041 now!
10-day predictions
COSMOS 2041 is classified as:


NORAD ID: 20235
Int'l Code: 1989-074D
Perigee: 1,403.7 km
Apogee: 1,416.7 km
Inclination: 82.6 °
Period: 113.8 minutes
Semi major axis: 7781 km
RCS: 1.3161 m2 (large)
Launch date: September 14, 1989
Source: Commonwealth of Independent States (former USSR) (CIS)
Launch site: PLESETSK MISSILE AND SPACE COMPLEX (PKMTR)
Your satellite tracking list
STARLINK-1243
Track 1 satellite(s)




NASA's NSSDC Master Catalog

Two Line Element Set (TLE):
1 20235U 89074D   25183.96328269  .00000013  00000-0  10442-4 0  9993
2 20235  82.5831  73.3851 0008354 163.8449 207.1002 12.64835083652367
Source of the keplerian elements: AFSPC